• In Netherlands
  • List of Countries
  • For 7 days
  • Water Temperature
  • Satellite Maps
  • Weather Map
  • Weather Widgets
  • user-avatar
    Login

    Hourly Weather Buenos Aires

    Today, 30 May, Tuesday

    Time Temperature Precipitation Wind Pressure Humidity
    00:00 +8°C° 0 mm 2 mps 768 mmHg 90%
    01:00 +8°C° 0 mm 2 mps 768 mmHg 90%
    02:00 +7°C° 0 mm 2 mps 768 mmHg 90%
    03:00 +7°C° 0 mm 2 mps 768 mmHg 90%
    04:00 +7°C° 0 mm 2 mps 768 mmHg 90%
    05:00 +7°C° 0 mm 2 mps 768 mmHg 90%
    06:00 +7°C° 0 mm 3 mps 768 mmHg 88%
    07:00 +8°C° 0 mm 3 mps 768 mmHg 86%
    08:00 +8°C° 0 mm 3 mps 768 mmHg 84%
    09:00 +10°C° 0 mm 3 mps 768 mmHg 77%
    10:00 +12°C° 0 mm 3 mps 768 mmHg 69%
    11:00 +13°C° 0 mm 3 mps 768 mmHg 62%
    12:00 +14°C° 0 mm 3 mps 768 mmHg 60%
    13:00 +14°C° 0 mm 3 mps 768 mmHg 59%
    14:00 +16°C° 0 mm 3 mps 767 mmHg 57%
    15:00 +13°C° 0 mm 3 mps 767 mmHg 65%
    16:00 +12°C° 0 mm 3 mps 767 mmHg 73%
    17:00 +10°C° 0 mm 3 mps 767 mmHg 80%
    18:00 +9°C° 0 mm 3 mps 767 mmHg 83%
    19:00 +9°C° 0 mm 3 mps 768 mmHg 86%
    20:00 +7°C° 0 mm 4 mps 768 mmHg 89%
    21:00 +7°C° 0 mm 4 mps 768 mmHg 90%
    22:00 +7°C° 0 mm 4 mps 768 mmHg 91%
    23:00 +6°C° 0 mm 4 mps 768 mmHg 92%

    Tomorrow, 31 May, Wednesday

    Time Temperature Precipitation Wind Pressure Humidity
    00:00 +7°C° 0 mm 3 mps 768 mmHg 92%
    01:00 +7°C° 0 mm 3 mps 768 mmHg 92%
    02:00 +5°C° 0 mm 3 mps 768 mmHg 91%
    03:00 +5°C° 0 mm 3 mps 768 mmHg 91%
    04:00 +5°C° 0 mm 3 mps 768 mmHg 91%
    05:00 +5°C° 0 mm 3 mps 768 mmHg 91%
    06:00 +5°C° 0 mm 3 mps 768 mmHg 88%
    07:00 +7°C° 0 mm 3 mps 768 mmHg 86%
    08:00 +7°C° 0 mm 3 mps 768 mmHg 84%
    09:00 +9°C° 0 mm 2 mps 768 mmHg 77%
    10:00 +12°C° 0 mm 2 mps 768 mmHg 71%
    11:00 +13°C° 0 mm 2 mps 768 mmHg 64%
    12:00 +14°C° 0 mm 2 mps 768 mmHg 61%
    13:00 +14°C° 0 mm 2 mps 767 mmHg 58%
    14:00 +14°C° 0 mm 2 mps 766 mmHg 56%
    15:00 +13°C° 0 mm 2 mps 766 mmHg 65%
    16:00 +10°C° 0 mm 2 mps 766 mmHg 74%
    17:00 +9°C° 0 mm 1 mps 766 mmHg 83%
    18:00 +8°C° 0 mm 1 mps 766 mmHg 83%
    19:00 +8°C° 0 mm 1 mps 766 mmHg 84%
    20:00 +8°C° 0 mm 1 mps 766 mmHg 84%
    21:00 +7°C° 0 mm 1 mps 766 mmHg 85%
    22:00 +7°C° 0 mm 1 mps 766 mmHg 86%
    23:00 +6°C° 0 mm 2 mps 766 mmHg 86%

    Day after tomorrow, 1 June, Thursday

    Time Temperature Precipitation Wind Pressure Humidity
    00:00 +6°C° 0 mm 1 mps 766 mmHg 87%
    01:00 +6°C° 0 mm 1 mps 766 mmHg 88%
    02:00 +6°C° 0 mm 1 mps 766 mmHg 89%
    03:00 +5°C° 0 mm 1 mps 765 mmHg 89%
    04:00 +5°C° 0 mm 1 mps 765 mmHg 90%
    05:00 +5°C° 0 mm 1 mps 765 mmHg 91%
    06:00 +6°C° 0 mm 1 mps 765 mmHg 90%
    07:00 +7°C° 0 mm 1 mps 765 mmHg 89%
    08:00 +9°C° 0 mm 1 mps 765 mmHg 88%
    09:00 +11°C° 0 mm 1 mps 766 mmHg 80%
    10:00 +13°C° 0 mm 1 mps 766 mmHg 72%
    11:00 +15°C° 0 mm 1 mps 766 mmHg 64%
    12:00 +15°C° 0 mm 1 mps 765 mmHg 61%
    13:00 +16°C° 0 mm 1 mps 765 mmHg 57%
    14:00 +16°C° 0 mm 2 mps 764 mmHg 54%
    15:00 +14°C° 0 mm 1 mps 764 mmHg 64%
    16:00 +11°C° 0 mm 1 mps 764 mmHg 73%
    17:00 +8°C° 0 mm 0 mps 764 mmHg 83%
    18:00 +9°C° 0 mm 1 mps 764 mmHg 83%
    19:00 +8°C° 0 mm 1 mps 765 mmHg 83%
    20:00 +8°C° 0 mm 1 mps 765 mmHg 84%
    21:00 +8°C° 0 mm 1 mps 765 mmHg 84%
    22:00 +8°C° 0 mm 1 mps 765 mmHg 84%
    23:00 +7°C° 0 mm 2 mps 765 mmHg 84%

    2 June, Friday

    Time Temperature Precipitation Wind Pressure Humidity
    00:00 +7°C° 0 mm 2 mps 765 mmHg 84%
    01:00 +7°C° 0 mm 2 mps 765 mmHg 84%
    02:00 +7°C° 0 mm 2 mps 765 mmHg 84%
    03:00 +7°C° 0 mm 3 mps 765 mmHg 85%
    04:00 +5°C° 0 mm 3 mps 764 mmHg 85%
    05:00 +5°C° 0 mm 3 mps 764 mmHg 86%
    06:00 +7°C° 0 mm 2 mps 765 mmHg 84%
    07:00 +7°C° 0 mm 2 mps 765 mmHg 82%
    08:00 +8°C° 0 mm 2 mps 765 mmHg 80%
    09:00 +10°C° 0 mm 3 mps 765 mmHg 73%
    10:00 +12°C° 0 mm 3 mps 765 mmHg 67%
    11:00 +14°C° 0 mm 3 mps 765 mmHg 61%
    12:00 +16°C° 0 mm 3 mps 764 mmHg 60%
    13:00 +16°C° 0 mm 3 mps 763 mmHg 60%
    14:00 +17°C° 0 mm 3 mps 763 mmHg 59%
    15:00 +14°C° 0 mm 3 mps 763 mmHg 68%
    16:00 +12°C° 0 mm 3 mps 762 mmHg 76%
    17:00 +11°C° 0 mm 3 mps 762 mmHg 84%
    18:00 +10°C° 0 mm 3 mps 762 mmHg 86%
    19:00 +10°C° 0 mm 4 mps 762 mmHg 88%
    20:00 +10°C° 0 mm 4 mps 762 mmHg 90%
    21:00 +10°C° 0 mm 4 mps 762 mmHg 91%
    22:00 +9°C° 0 mm 5 mps 762 mmHg 92%
    23:00 +9°C° 0 mm 5 mps 762 mmHg 94%

    3 June, Saturday

    Time Temperature Precipitation Wind Pressure Humidity
    00:00 +9°C° 0 mm 5 mps 762 mmHg 94%
    01:00 +9°C° 0 mm 5 mps 761 mmHg 94%
    02:00 +9°C° 0 mm 5 mps 761 mmHg 95%
    03:00 +9°C° 0 mm 5 mps 761 mmHg 95%
    04:00 +8°C° 0 mm 5 mps 761 mmHg 96%
    05:00 +8°C° 0 mm 4 mps 761 mmHg 96%
    06:00 +8°C° 0 mm 4 mps 761 mmHg 96%
    07:00 +10°C° 0 mm 4 mps 761 mmHg 96%
    08:00 +10°C° 0 mm 4 mps 761 mmHg 95%
    09:00 +12°C° 0 mm 4 mps 761 mmHg 89%
    10:00 +13°C° 0 mm 4 mps 761 mmHg 82%
    11:00 +15°C° 0 mm 4 mps 761 mmHg 75%
    12:00 +15°C° 0 mm 4 mps 760 mmHg 72%
    13:00 +17°C° 0 mm 3 mps 760 mmHg 69%
    14:00 +18°C° 0 mm 3 mps 759 mmHg 66%
    15:00 +16°C° 0 mm 2 mps 759 mmHg 73%
    16:00 +14°C° 0 mm 1 mps 759 mmHg 80%
    17:00 +13°C° 0 mm 1 mps 759 mmHg 86%
    18:00 +13°C° 0 mm 1 mps 759 mmHg 85%
    19:00 +13°C° 0 mm 1 mps 760 mmHg 85%
    20:00 +13°C° 0 mm 1 mps 760 mmHg 84%
    21:00 +13°C° 0 mm 2 mps 760 mmHg 86%
    22:00 +12°C° 0 mm 2 mps 760 mmHg 88%
    23:00 +12°C° 0 mm 2 mps 761 mmHg 90%

    4 June, Sunday

    Time Temperature Precipitation Wind Pressure Humidity
    00:00 +10°C° 0 mm 3 mps 761 mmHg 91%
    01:00 +10°C° 0 mm 3 mps 761 mmHg 92%
    02:00 +9°C° 0 mm 3 mps 761 mmHg 92%
    03:00 +9°C° 0 mm 3 mps 761 mmHg 93%
    04:00 +9°C° 0 mm 3 mps 761 mmHg 93%
    05:00 +8°C° 0 mm 3 mps 762 mmHg 93%
    06:00 +9°C° 0 mm 3 mps 762 mmHg 91%
    07:00 +9°C° 0 mm 3 mps 762 mmHg 89%
    08:00 +9°C° 0 mm 3 mps 763 mmHg 87%
    09:00 +11°C° 0 mm 3 mps 763 mmHg 74%
    10:00 +13°C° 0 mm 3 mps 763 mmHg 62%
    11:00 +15°C° 0 mm 2 mps 763 mmHg 50%
    12:00 +16°C° 0 mm 2 mps 763 mmHg 47%
    13:00 +16°C° 0 mm 2 mps 762 mmHg 44%
    14:00 +17°C° 0 mm 2 mps 762 mmHg 42%
    15:00 +15°C° 0 mm 2 mps 762 mmHg 50%
    16:00 +12°C° 0 mm 2 mps 762 mmHg 57%
    17:00 +9°C° 0 mm 2 mps 763 mmHg 65%
    18:00 +8°C° 0 mm 2 mps 763 mmHg 68%
    19:00 +8°C° 0 mm 2 mps 763 mmHg 71%
    20:00 +8°C° 0 mm 1 mps 764 mmHg 75%
    21:00 +8°C° 0 mm 1 mps 764 mmHg 75%
    22:00 +7°C° 0 mm 1 mps 764 mmHg 76%
    23:00 +7°C° 0 mm 1 mps 764 mmHg 77%
    Show more